Powrót do katalogu

FENGYUN 1C DEB

AktywnySSO
NORAD 35140·DEBRIS·🇨🇳 China

Wystrzelony May 10, 1999 z Taiyuan Satellite Launch Center

Loading…

Następne Przeloty (najbliższe 24 godziny)

TLE

ŚwieżeSource: Space-Track

Epoka: Sep 12, 2026, 09:13 UTC

1 35140U 99025DLU 26255.38404827  .00000158  00000-0  62843-4 0  9995
2 35140  98.4769 230.9241 0289226 249.1008 107.8988 14.21602986911665

Śledź FENGYUN 1C DEB w czasie rzeczywistym z AllMySat

Download on the App Store